Location: Bluff Heights
(33.7692°N, 118.1592°W)
Time: 22:47:13
(UTC+00:00)

Tiros 1 - Pass Details

Date: 29 July 2021
Orbit: 630 x 663 km, 48.4° (Epoch: 20 September)

Event Time Altitude Azimuth Distance (km) Brightness Sun altitude
Rises 08:59:42 0° 311° (NW) 2,942 10.8 -35.6°
Enters shadow 09:00:23 - 312° (NW) 2,679 10.6 -35.6°
Reaches altitude 10° 09:02:05 10° 315° (NW) 2,026 - -35.5°
Maximum altitude 09:06:41 60° 35° (NE) 727 - -35.2°
Drops below altitude 10° 09:11:14 10° 116° (ESE) 2,003 - -34.8°
Sets 09:13:34 0° 120° (ESE) 2,906 - -34.7°
